User: anonymous   Login
Location: Unspecified
(0.0000°N, 0.0000°E)
Time: 12:37:58
(UTC+02:00)
Language:

CZ-4 R/B - Orbit

View from above orbital plane
View from above orbital plane
View from above satellite
View from above satellite

Ground track
Ground track

The orbit data is extracted from the following two-line orbital elements,

1 28059U 03049C   17113.74478778 +.00000052 +00000-0 +24498-4 0  9993
2 28059 098.5690 358.5814 0051190 054.1924 346.7218 14.52483980715781
Epoch (UTC): 23 April 2017 17:52:29
Eccentricity: 0.0051190
inclination: 98.5690°
perigee height: 681 km
apogee height: 754 km
right ascension of ascending node: 358.5814°
argument of perigee: 54.1924°
revolutions per day: 14.52483980
mean anomaly at epoch: 346.7218°
orbit number at epoch: 71578

The dashed part of the orbit path shows where the satellite is in the earth's shadow,  

DLR